[[{"header":{"parameterUnit":"m.s-1","parameterCategory":1,"la1":30.2991,"la2":30.254,"lo1":-89.0895,"lo2":-89.0444,"dy":0.0017,"dx":0.0017,"nx":28,"ny":28,"refTime":"2023-07-22T21:00:00:Z","depth":0,"parameterNumber":2,"parameterNumberName":"U-component_of_WINDS"},"data":[0,0,0,0,0,0,0,0,0,0,0,0,0,0,0,0,0,0,0,0,0,0,0,0,0,0,0,0,0,0,0,0,0,0,0,0,0,0,0,0,0,0,0,0,0,0,0,0,0,0,0,0,0,0,0,0,0,0,1.9935,1.9939,0,2.0322,2.0326,2.033,2.0529,2.053,2.053,2.053,2.0915,2.0925,2.0935,0,0,0,0,0,0,0,0,0,0,0,0,0,1.9351,1.9361,1.9934,1.9939,1.9944,2.0321,2.0326,2.0332,2.0529,2.053,2.053,2.053,2.0912,2.0924,2.0936,0,0,0,0,0,0,0,0,0,0,0,0,0,1.9657,1.9364,1.9934,2.0089,2.0106,2.032,2.0327,2.0333,2.0529,2.053,2.053,2.053,2.0908,2.0922,2.0937,2.1023,0,0,2.0983,2.099,0,0,0,0,0,0,0,0,1.964,1.9679,2.0061,2.0078,2.0099,2.0378,2.0262,2.0564,2.0529,2.0368,2.053,2.0531,2.0735,2.0764,2.0836,2.1041,2.1057,2.0985,2.0994,2.1,2.1004,0,0,0,0,0,0,0,1.9618,1.9663,2.0087,2.0066,2.0089,2.0134,2.0178,2.032,2.0545,2.0382,2.0398,2.0441,2.0745,2.0821,2.0846,2.1063,2.0984,2.0997,2.1007,2.1013,2.1351,2.1351,0,0,0,0,0,0,1.9574,1.9644,2.0075,2.0099,1.9866,2.0144,2.0193,2.0288,2.0544,2.0583,2.0441,2.0449,2.0795,2.0829,2.0861,2.0975,2.1,2.1014,2.1023,2.1351,2.1351,2.1351,0,0,0,0,0,0,1.9561,1.9611,2.006,1.9876,1.9937,2.0154,2.0258,2.0295,2.0371,2.0588,2.0628,2.0478,2.0797,2.084,2.0981,2.0991,2.1021,2.1035,2.1351,2.1351,2.1351,2.1206,0,0,0,0,0,0,1.9543,1.9605,1.9644,1.9876,1.9946,2.0177,2.0259,2.0302,2.0398,2.0413,2.0633,2.067,2.08,2.0957,2.0995,2.1013,2.1046,2.1351,2.1351,2.1351,2.1211,2.1201,2.1192,0,0,0,0,0,1.9522,1.9586,1.9645,1.9696,2.0,2.0178,2.0217,2.0369,2.0398,2.0436,2.0574,2.0663,2.0983,2.097,2.1015,2.1037,2.1351,2.1351,2.1351,2.1215,2.1203,2.1193,0,0,0,0,0,0,1.9348,1.962,1.9688,1.983,1.9979,2.0211,2.0265,2.0352,2.0494,2.0502,2.068,2.0728,2.0851,2.0958,2.0938,2.113,2.1176,2.1185,2.1056,2.1047,2.1038,2.101,2.1059,0,0,0,0,0,1.9326,1.9453,1.9682,1.9784,1.9856,2.0046,2.013,2.0233,2.0394,2.0457,2.0607,2.0755,2.0889,2.0974,2.1109,2.1226,2.1274,2.1262,2.1253,2.1244,2.125,2.1315,2.1311,2.1351,2.1351,2.1351,0,0,1.9283,1.9447,1.9515,1.9753,1.9882,2.0003,2.0099,2.0225,2.0315,2.0476,2.0619,2.0731,2.0909,2.1036,2.11,2.1129,2.1249,2.1244,2.1236,2.1247,2.1314,2.131,2.1306,2.1351,2.1351,2.1351,0,0,1.9266,1.9404,1.9504,1.9629,1.9823,1.9948,1.997,2.0188,2.027,2.0417,2.0538,2.0645,2.0874,2.0994,2.1085,2.1105,2.119,2.1143,2.1096,2.1157,2.1154,2.1152,2.1156,2.1156,2.1148,2.1148,2.1147,0,1.9187,1.9381,1.9543,1.9662,1.976,1.9912,2.001,2.0123,2.0348,2.041,2.0439,2.0726,2.0856,2.1012,2.1016,2.1086,2.1113,2.112,2.1142,2.1141,2.1142,2.1148,2.1149,2.1141,2.1141,2.1142,2.1143,0,1.9271,1.9402,1.9458,1.9675,1.9779,1.9886,2.006,2.0145,2.0237,2.0356,2.0499,2.066,2.0829,2.0873,2.0964,2.104,2.1051,2.1108,2.1159,2.1128,2.1137,2.114,2.1131,2.1133,2.1135,2.1137,0,0,1.9162,1.9463,1.948,1.9578,1.9799,1.9901,2.001,2.0178,2.0246,2.0393,2.0488,2.0674,2.0727,2.083,2.0934,2.0987,2.0988,2.1038,2.1045,2.1021,2.1077,2.1032,2.1033,2.1045,2.1047,2.1047,2.1061,0,1.9176,1.9388,1.9533,1.9685,1.9805,1.9946,2.0042,2.0184,2.0296,2.041,2.0533,2.0662,2.0723,2.0785,2.0844,2.0976,2.1002,2.0977,2.1131,2.1134,2.1082,2.1038,2.0993,2.0999,2.1066,2.1067,2.1067,0,1.9223,1.9367,1.9532,1.9734,1.979,1.9874,2.0036,2.0144,2.0305,2.0382,2.0493,2.06,2.0716,2.0753,2.0914,2.0893,2.0964,2.1036,2.104,2.1061,2.1099,2.1055,2.1005,2.1004,2.1075,2.1074,2.1074,0,1.9123,1.9359,1.9487,1.9566,1.9806,1.9861,1.9962,2.0124,2.0213,2.0352,2.0411,2.056,2.0641,2.0752,2.0893,2.0908,2.1036,2.1087,2.11,2.1096,2.1123,2.1119,2.1081,2.1168,2.1168,2.1168,2.1168,0,1.9124,1.9219,1.9445,1.9524,1.9631,1.9793,1.9893,2.0006,2.0147,2.0246,2.0375,2.0463,2.0645,2.0754,2.0864,2.0977,2.1013,2.1075,2.1103,2.1064,2.1056,2.1113,2.1116,2.1168,2.1168,2.1168,2.1168,0,1.9034,1.919,1.9338,1.9552,1.9607,1.9676,1.9857,1.9935,2.0052,2.0174,2.0212,2.0395,2.0529,2.068,2.0864,2.0937,2.1042,2.1083,2.0988,2.1005,2.1009,2.1005,2.1006,2.1012,2.1094,2.1093,2.1092,0,1.9025,1.9101,1.9322,1.9398,1.9497,1.9618,1.971,1.9869,1.9957,2.0142,2.0196,2.034,2.0465,2.0671,2.0817,2.0956,2.1001,2.0991,2.1023,2.0979,2.0998,2.0992,2.0998,2.0982,2.0981,2.0979,2.0978,0,1.8992,1.9063,1.9192,1.9345,1.9451,1.9579,1.9711,1.9765,1.9949,2.0041,2.0181,2.0276,2.0462,2.0602,2.0758,2.0857,2.0946,2.0966,2.0977,2.0937,2.0878,2.0908,2.0963,2.0966,2.0968,2.0969,2.0969,2.097,1.8942,1.9014,1.9179,1.9316,1.9431,1.9551,1.9633,1.976,1.988,2.0046,2.0131,2.0267,2.0419,2.0638,2.0734,2.0839,2.0869,2.0884,2.0888,2.0889,2.0876,2.0861,2.0868,2.0869,2.0869,2.087,2.087,0,1.8914,1.9025,1.9149,1.933,1.9435,1.9512,1.966,1.9742,1.9861,1.9997,2.0115,2.0271,2.0405,2.0559,2.0702,2.0756,2.08,2.0787,2.0785,2.0805,2.0843,2.082,2.0749,2.0749,2.0749,2.0749,2.0749,2.0749,1.8912,1.9036,1.9125,1.9305,1.9416,1.9553,1.963,1.9738,1.9847,2.0016,2.0129,2.0229,2.037,2.0522,2.0646,2.0687,2.0732,2.0707,2.076,2.0793,2.0803,2.0813,2.0792,2.0716,2.0716,2.0714,2.0713,2.0713]},{"header":{"parameterUnit":"m.s-1","parameterCategory":1,"la1":30.2991,"la2":30.254,"lo1":-89.0895,"lo2":-89.0444,"dy":0.0017,"dx":0.0017,"nx":28,"ny":28,"refTime":"2023-07-22T21:00:00:Z","depth":0,"parameterNumber":3,"parameterNumberName":"V-component_of_WINDS"},"data":[0,0,0,0,0,0,0,0,0,0,0,0,0,0,0,0,0,0,0,0,0,0,0,0,0,0,0,0,0,0,0,0,0,0,0,0,0,0,0,0,0,0,0,0,0,0,0,0,0,0,0,0,0,0,0,0,0,0,-0.8047,-0.8044,0,-0.7729,-0.7725,-0.7722,-0.7164,-0.7153,-0.7143,-0.7133,-0.6819,-0.6821,-0.6822,0,0,0,0,0,0,0,0,0,0,0,0,0,-0.8186,-0.8187,-0.8047,-0.8043,-0.8039,-0.7729,-0.7725,-0.7721,-0.7166,-0.7153,-0.714,-0.7128,-0.6819,-0.682,-0.6822,0,0,0,0,0,0,0,0,0,0,0,0,0,-0.8024,-0.8187,-0.8048,-0.7725,-0.7692,-0.773,-0.7725,-0.7719,-0.7168,-0.7153,-0.7137,-0.7122,-0.6818,-0.682,-0.6823,-0.7154,0,0,-0.6829,-0.683,0,0,0,0,0,0,0,0,-0.8034,-0.8019,-0.7776,-0.7747,-0.7711,-0.7469,-0.7658,-0.753,-0.7172,-0.7368,-0.7133,-0.7114,-0.7049,-0.7031,-0.7007,-0.7139,-0.7125,-0.683,-0.6831,-0.6832,-0.6833,0,0,0,0,0,0,0,-0.8046,-0.803,-0.7921,-0.7774,-0.7734,-0.7599,-0.7559,-0.7632,-0.7302,-0.735,-0.7308,-0.7278,-0.7028,-0.7006,-0.6996,-0.7121,-0.683,-0.6832,-0.6833,-0.6834,-0.751,-0.7526,0,0,0,0,0,0,-0.8103,-0.8043,-0.7931,-0.7912,-0.7836,-0.761,-0.7564,-0.7563,-0.7299,-0.7244,-0.7292,-0.7253,-0.701,-0.6994,-0.6983,-0.7354,-0.6832,-0.6834,-0.6835,-0.7494,-0.7514,-0.7532,0,0,0,0,0,0,-0.8108,-0.8098,-0.7944,-0.7966,-0.7936,-0.7624,-0.7628,-0.7565,-0.7542,-0.7255,-0.7195,-0.7329,-0.6997,-0.6979,-0.7115,-0.7335,-0.6835,-0.6837,-0.7474,-0.75,-0.7523,-0.8102,0,0,0,0,0,0,-0.8114,-0.8103,-0.8223,-0.7973,-0.7937,-0.8081,-0.7641,-0.7571,-0.7546,-0.7493,-0.7274,-0.7223,-0.6983,-0.7115,-0.7117,-0.733,-0.6839,-0.7453,-0.7486,-0.7515,-0.8062,-0.8143,-0.8213,0,0,0,0,0,-0.8121,-0.8401,-0.8232,-0.8222,-0.808,-0.8094,-0.8074,-0.7789,-0.7566,-0.7686,-0.7502,-0.723,-0.7311,-0.7133,-0.7131,-0.7348,-0.7438,-0.7477,-0.7513,-0.8027,-0.8127,-0.8211,0,0,0,0,0,0,-0.8689,-0.8362,-0.8171,-0.8377,-0.8268,-0.8,-0.8142,-0.7904,-0.7858,-0.7811,-0.7462,-0.7418,-0.76,-0.7485,-0.7294,-0.7655,-0.7332,-0.7371,-0.7724,-0.7816,-0.7891,-0.7916,-0.6841,0,0,0,0,0,-0.8838,-0.8873,-0.8586,-0.8796,-0.875,-0.8459,-0.8453,-0.8243,-0.8117,-0.8069,-0.7894,-0.7786,-0.7785,-0.7793,-0.7778,-0.8041,-0.7988,-0.8189,-0.8265,-0.8329,-0.8368,-0.8502,-0.8589,-0.7655,-0.7655,-0.7654,0,0,-0.9147,-0.8972,-0.9016,-0.8906,-0.8796,-0.8845,-0.8423,-0.8491,-0.8525,-0.808,-0.8197,-0.8067,-0.7922,-0.8124,-0.8204,-0.8035,-0.8614,-0.8377,-0.843,-0.8433,-0.855,-0.8639,-0.8718,-0.768,-0.7676,-0.7672,0,0,-0.9734,-0.9605,-0.9765,-0.9664,-0.9501,-0.9304,-0.9345,-0.9113,-0.9008,-0.9119,-0.8787,-0.8824,-0.8831,-0.8742,-0.8699,-0.9256,-0.9005,-0.926,-0.9658,-0.9793,-0.9867,-0.993,-1.0133,-1.0209,-0.9299,-0.9301,-0.9302,0,-1.014,-1.0195,-0.988,-0.9969,-0.9933,-0.9528,-0.9692,-0.9609,-0.9454,-0.944,-0.9251,-0.9252,-0.9127,-0.9304,-0.944,-0.9417,-0.9455,-0.9285,-0.9881,-0.9942,-0.9996,-1.0186,-1.0263,-0.9333,-0.9329,-0.9326,-0.9323,0,-1.0704,-1.0748,-1.0898,-1.0754,-1.0734,-1.0862,-1.0569,-1.0588,-1.038,-1.0206,-1.0327,-1.0161,-1.0106,-1.0131,-0.993,-1.0282,-1.0182,-0.9943,-0.9611,-1.0123,-1.0296,-1.0365,-0.9379,-0.9368,-0.9358,-0.935,0,0,-1.1641,-1.132,-1.1381,-1.1312,-1.1104,-1.1134,-1.1245,-1.1187,-1.1212,-1.1118,-1.1205,-1.1221,-1.0998,-1.095,-1.0735,-1.0853,-1.131,-1.0597,-1.0589,-1.074,-1.1691,-1.1877,-1.1965,-1.114,-1.1153,-1.1162,-1.1705,0,-1.2187,-1.2353,-1.2074,-1.2308,-1.2347,-1.1965,-1.2061,-1.1948,-1.1788,-1.1801,-1.1624,-1.1643,-1.1345,-1.1314,-1.1413,-1.1234,-1.1497,-1.1189,-1.1223,-1.1228,-1.1276,-1.2054,-1.2248,-1.2769,-1.177,-1.1781,-1.1789,0,-1.2845,-1.2782,-1.302,-1.2799,-1.2805,-1.2897,-1.2823,-1.2839,-1.2704,-1.2579,-1.2527,-1.2272,-1.2369,-1.2047,-1.2178,-1.1976,-1.1973,-1.1887,-1.19,-1.1896,-1.1543,-1.2076,-1.2927,-1.3008,-1.1891,-1.1883,-1.1875,0,-1.351,-1.3484,-1.3622,-1.3575,-1.332,-1.3395,-1.3293,-1.314,-1.3125,-1.3062,-1.3049,-1.3001,-1.2976,-1.2946,-1.2687,-1.2475,-1.2853,-1.2507,-1.2756,-1.2764,-1.2856,-1.2855,-1.3725,-1.2849,-1.2848,-1.2847,-1.2845,0,-1.415,-1.4312,-1.3918,-1.4005,-1.4176,-1.3855,-1.4035,-1.3894,-1.3763,-1.3819,-1.3485,-1.3546,-1.3197,-1.3221,-1.3019,-1.3162,-1.3152,-1.3058,-1.3003,-1.309,-1.3103,-1.3086,-1.3045,-1.2867,-1.2862,-1.2858,-1.2855,0,-1.4922,-1.4664,-1.4791,-1.454,-1.448,-1.4619,-1.4404,-1.4477,-1.4295,-1.4371,-1.437,-1.4088,-1.4099,-1.3836,-1.3795,-1.3659,-1.3893,-1.3771,-1.394,-1.3903,-1.4168,-1.415,-1.5061,-1.5166,-1.4223,-1.4232,-1.424,0,-1.5349,-1.5464,-1.5225,-1.5237,-1.5151,-1.5174,-1.5156,-1.4846,-1.4842,-1.4698,-1.479,-1.4772,-1.4742,-1.4779,-1.4573,-1.4542,-1.4419,-1.4741,-1.4413,-1.4498,-1.4429,-1.4428,-1.444,-1.4812,-1.4824,-1.4834,-1.4841,0,-1.6136,-1.6003,-1.5987,-1.5931,-1.5919,-1.5859,-1.5778,-1.5809,-1.547,-1.5484,-1.5489,-1.5467,-1.5425,-1.5415,-1.5344,-1.5242,-1.4991,-1.4946,-1.5002,-1.5095,-1.5189,-1.5146,-1.4133,-1.4927,-1.4919,-1.4912,-1.4908,-1.4904,-1.6749,-1.6835,-1.6681,-1.6677,-1.6583,-1.6517,-1.6573,-1.6398,-1.6397,-1.6337,-1.6154,-1.6194,-1.6057,-1.5936,-1.5858,-1.5886,-1.5728,-1.5809,-1.583,-1.5857,-1.5909,-1.5182,-1.5872,-1.5869,-1.5866,-1.5864,-1.5862,0,-1.7521,-1.7403,-1.7403,-1.73,-1.7299,-1.7056,-1.6955,-1.6972,-1.7009,-1.6902,-1.688,-1.689,-1.6879,-1.6673,-1.6638,-1.6701,-1.6585,-1.6703,-1.6697,-1.6679,-1.605,-1.6006,-1.6798,-1.6798,-1.6798,-1.6798,-1.6797,-1.6797,-1.7923,-1.8057,-1.7907,-1.7994,-1.7873,-1.7907,-1.7871,-1.781,-1.7723,-1.7749,-1.7737,-1.7601,-1.7456,-1.7408,-1.7389,-1.7329,-1.7334,-1.7494,-1.7396,-1.6813,-1.6723,-1.6637,-1.6594,-1.7496,-1.7497,-1.8022,-1.8027,-1.8031]}]]